Year,Month,Day,Hour,Minute,Value (Times are PST for temperature in C)
2014,09,12,00,00,13.50
2014,09,12,00,01,13.50
2014,09,12,00,02,13.50
2014,09,12,00,03,13.40
2014,09,12,00,04,13.40
2014,09,12,00,05,13.40
2014,09,12,00,06,13.30
2014,09,12,00,07,13.30
2014,09,12,00,08,13.30
2014,09,12,00,09,13.30
2014,09,12,00,10,13.20
2014,09,12,00,11,13.20
2014,09,12,00,12,13.20
2014,09,12,00,13,13.20
2014,09,12,00,14,13.10
2014,09,12,00,15,13.10
2014,09,12,00,16,13.10
2014,09,12,00,17,13.00
2014,09,12,00,18,13.00
2014,09,12,00,19,13.00
2014,09,12,00,20,12.90
2014,09,12,00,21,12.90
2014,09,12,00,22,12.90
2014,09,12,00,23,12.90
2014,09,12,00,24,12.90
2014,09,12,00,25,12.90
2014,09,12,00,26,12.90
2014,09,12,00,27,12.90
2014,09,12,00,28,12.90
2014,09,12,00,29,12.90
2014,09,12,00,30,12.90
2014,09,12,00,31,12.90
2014,09,12,00,32,12.90
2014,09,12,00,33,12.80
2014,09,12,00,34,12.80
2014,09,12,00,35,12.80
2014,09,12,00,36,12.80
2014,09,12,00,37,12.70
2014,09,12,00,38,12.70
2014,09,12,00,39,12.60
2014,09,12,00,40,12.50
2014,09,12,00,41,12.50
2014,09,12,00,42,12.40
2014,09,12,00,43,12.40
2014,09,12,00,44,12.30
2014,09,12,00,45,12.30
2014,09,12,00,46,12.30
2014,09,12,00,47,12.30
2014,09,12,00,48,12.30
2014,09,12,00,49,12.20
2014,09,12,00,50,12.20
2014,09,12,00,51,12.20
2014,09,12,00,52,12.20
2014,09,12,00,53,12.20
2014,09,12,00,54,12.20
2014,09,12,00,55,12.10
2014,09,12,00,56,12.10
2014,09,12,00,57,12.10
2014,09,12,00,58,12.10
2014,09,12,00,59,12.10
2014,09,12,01,00,12.00
2014,09,12,01,01,12.00
2014,09,12,01,02,12.00
2014,09,12,01,03,12.00
2014,09,12,01,04,11.90
2014,09,12,01,05,11.90
2014,09,12,01,06,11.90
2014,09,12,01,07,11.90
2014,09,12,01,08,11.90
2014,09,12,01,09,11.90
2014,09,12,01,10,11.90
2014,09,12,01,11,11.80
2014,09,12,01,12,11.80
2014,09,12,01,13,11.80
2014,09,12,01,14,11.80
2014,09,12,01,15,11.80
2014,09,12,01,16,11.80
2014,09,12,01,17,11.80
2014,09,12,01,18,11.80
2014,09,12,01,19,11.80
2014,09,12,01,20,11.80
2014,09,12,01,21,11.80
2014,09,12,01,22,11.80
2014,09,12,01,23,11.80
2014,09,12,01,24,11.80
2014,09,12,01,25,11.80
2014,09,12,01,26,11.80
2014,09,12,01,27,11.80
2014,09,12,01,28,11.80
2014,09,12,01,29,11.80
2014,09,12,01,30,11.80
2014,09,12,01,31,11.80
2014,09,12,01,32,11.80
2014,09,12,01,33,11.80
2014,09,12,01,34,11.80
2014,09,12,01,35,11.80
2014,09,12,01,36,11.80
2014,09,12,01,37,11.80
2014,09,12,01,38,11.80
2014,09,12,01,39,11.90
2014,09,12,01,40,11.90
2014,09,12,01,41,11.90
2014,09,12,01,42,11.90
2014,09,12,01,43,11.90
2014,09,12,01,44,11.90
2014,09,12,01,45,11.90
2014,09,12,01,46,11.80
2014,09,12,01,47,11.80
2014,09,12,01,48,11.80
2014,09,12,01,49,11.80
2014,09,12,01,50,11.80
2014,09,12,01,51,11.80
2014,09,12,01,52,11.80
2014,09,12,01,53,11.80
2014,09,12,01,54,11.80
2014,09,12,01,55,11.80
2014,09,12,01,56,11.80
2014,09,12,01,57,11.80
2014,09,12,01,58,11.80
2014,09,12,01,59,11.80
2014,09,12,02,00,11.80
2014,09,12,02,01,11.80
2014,09,12,02,02,11.80
2014,09,12,02,03,11.80
2014,09,12,02,04,11.80
2014,09,12,02,05,11.80
2014,09,12,02,06,11.80
2014,09,12,02,07,11.70
2014,09,12,02,08,11.70
2014,09,12,02,09,11.70
2014,09,12,02,10,11.60
2014,09,12,02,11,11.60
2014,09,12,02,12,11.50
2014,09,12,02,13,11.50
2014,09,12,02,14,11.50
2014,09,12,02,15,11.40
2014,09,12,02,16,11.40
2014,09,12,02,17,11.40
2014,09,12,02,18,11.30
2014,09,12,02,19,11.30
2014,09,12,02,20,11.30
2014,09,12,02,21,11.30
2014,09,12,02,22,11.20
2014,09,12,02,23,11.20
2014,09,12,02,24,11.20
2014,09,12,02,25,11.10
2014,09,12,02,26,11.10
2014,09,12,02,27,11.10
2014,09,12,02,28,11.00
2014,09,12,02,29,11.00
2014,09,12,02,30,11.00
2014,09,12,02,31,10.90
2014,09,12,02,32,10.90
2014,09,12,02,33,10.90
2014,09,12,02,34,10.90
2014,09,12,02,35,10.90
2014,09,12,02,36,10.90
2014,09,12,02,37,10.90
2014,09,12,02,38,10.80
2014,09,12,02,39,10.80
2014,09,12,02,40,10.80
2014,09,12,02,41,10.80
2014,09,12,02,42,10.80
2014,09,12,02,43,10.80
2014,09,12,02,44,10.80
2014,09,12,02,45,10.80
2014,09,12,02,46,10.80
2014,09,12,02,47,10.80
2014,09,12,02,48,10.80
2014,09,12,02,49,10.70
2014,09,12,02,50,10.70
2014,09,12,02,51,10.70
2014,09,12,02,52,10.70
2014,09,12,02,53,10.70
2014,09,12,02,54,10.70
2014,09,12,02,55,10.70
2014,09,12,02,56,10.80
2014,09,12,02,57,10.80
2014,09,12,02,58,10.80
2014,09,12,02,59,10.80
2014,09,12,03,00,10.80
2014,09,12,03,01,10.80
2014,09,12,03,02,10.80
2014,09,12,03,03,10.80
2014,09,12,03,06,10.90
2014,09,12,03,07,10.90
2014,09,12,03,08,10.90
2014,09,12,03,09,10.90
2014,09,12,03,10,10.90
2014,09,12,03,11,10.90
2014,09,12,03,12,10.90
2014,09,12,03,13,10.90
2014,09,12,03,14,10.90
2014,09,12,03,15,10.90
2014,09,12,03,16,10.90
2014,09,12,03,17,10.90
2014,09,12,03,18,10.90
2014,09,12,03,19,10.90
2014,09,12,03,20,10.90
2014,09,12,03,21,10.90
2014,09,12,03,22,10.90
2014,09,12,03,23,10.90
2014,09,12,03,24,10.90
2014,09,12,03,25,10.90
2014,09,12,03,26,10.90
2014,09,12,03,27,10.90
2014,09,12,03,28,10.90
2014,09,12,03,29,10.90
2014,09,12,03,30,10.90
2014,09,12,03,31,10.90
2014,09,12,03,32,10.90
2014,09,12,03,33,10.90
2014,09,12,03,34,11.00
2014,09,12,03,35,11.00
2014,09,12,03,36,11.00
2014,09,12,03,37,11.10
2014,09,12,03,38,11.10
2014,09,12,03,39,11.10
2014,09,12,03,40,11.10
2014,09,12,03,41,11.20
2014,09,12,03,42,11.20
2014,09,12,03,43,11.20
2014,09,12,03,44,11.20
2014,09,12,03,45,11.20
2014,09,12,03,46,11.20
2014,09,12,03,47,11.20
2014,09,12,03,48,11.20
2014,09,12,03,49,11.20
2014,09,12,03,50,11.20
2014,09,12,03,51,11.20
2014,09,12,03,52,11.20
2014,09,12,03,53,11.10
2014,09,12,03,54,11.10
2014,09,12,03,55,11.00
2014,09,12,03,56,11.00
2014,09,12,03,57,10.90
2014,09,12,03,58,10.90
2014,09,12,03,59,10.80
2014,09,12,04,00,10.80
2014,09,12,04,01,10.80
2014,09,12,04,02,10.70
2014,09,12,04,03,10.70
2014,09,12,04,04,10.70
2014,09,12,04,05,10.60
2014,09,12,04,06,10.60
2014,09,12,04,07,10.60
2014,09,12,04,08,10.60
2014,09,12,04,09,10.60
2014,09,12,04,10,10.60
2014,09,12,04,11,10.60
2014,09,12,04,12,10.60
2014,09,12,04,13,10.70
2014,09,12,04,14,10.70
2014,09,12,04,15,10.80
2014,09,12,04,16,11.00
2014,09,12,04,17,11.10
2014,09,12,04,18,11.30
2014,09,12,04,19,11.40
2014,09,12,04,20,11.50
2014,09,12,04,21,11.70
2014,09,12,04,22,11.90
2014,09,12,04,23,12.10
2014,09,12,04,24,12.20
2014,09,12,04,25,12.30
2014,09,12,04,26,12.40
2014,09,12,04,27,12.50
2014,09,12,04,28,12.60
2014,09,12,04,29,12.60
2014,09,12,04,30,12.70
2014,09,12,04,31,12.70
2014,09,12,04,32,12.70
2014,09,12,04,33,12.80
2014,09,12,04,34,12.80
2014,09,12,04,35,12.80
2014,09,12,04,36,12.80
2014,09,12,04,37,12.80
2014,09,12,04,38,12.80
2014,09,12,04,39,12.80
2014,09,12,04,40,12.70
2014,09,12,04,41,12.70
2014,09,12,04,42,12.70
2014,09,12,04,43,12.60
2014,09,12,04,44,12.50
2014,09,12,04,45,12.40
2014,09,12,04,46,12.20
2014,09,12,04,47,12.00
2014,09,12,04,48,11.80
2014,09,12,04,49,11.60
2014,09,12,04,50,11.40
2014,09,12,04,51,11.30
2014,09,12,04,52,11.10
2014,09,12,04,53,11.00
2014,09,12,04,54,10.80
2014,09,12,04,55,10.70
2014,09,12,04,56,10.60
2014,09,12,04,57,10.50
2014,09,12,04,58,10.40
2014,09,12,04,59,10.30
2014,09,12,05,00,10.20
2014,09,12,05,01,10.20
2014,09,12,05,02,10.10
2014,09,12,05,03,10.10
2014,09,12,05,04,10.00
2014,09,12,05,05,10.00
2014,09,12,05,06,9.90
2014,09,12,05,07,9.90
2014,09,12,05,08,9.90
2014,09,12,05,09,9.80
2014,09,12,05,10,9.80
2014,09,12,05,11,9.70
2014,09,12,05,12,9.70
2014,09,12,05,13,9.70
2014,09,12,05,14,9.60
2014,09,12,05,15,9.60
2014,09,12,05,16,9.50
2014,09,12,05,17,9.50
2014,09,12,05,18,9.50
2014,09,12,05,19,9.50
2014,09,12,05,20,9.40
2014,09,12,05,21,9.40
2014,09,12,05,22,9.40
2014,09,12,05,23,9.40
2014,09,12,05,24,9.40
2014,09,12,05,25,9.30
2014,09,12,05,26,9.30
2014,09,12,05,27,9.30
2014,09,12,05,28,9.30
2014,09,12,05,29,9.30
2014,09,12,05,30,9.30
2014,09,12,05,31,9.30
2014,09,12,05,32,9.30
2014,09,12,05,33,9.30
2014,09,12,05,34,9.30
2014,09,12,05,35,9.20
2014,09,12,05,36,9.20
2014,09,12,05,37,9.20
2014,09,12,05,38,9.20
2014,09,12,05,39,9.30
2014,09,12,05,40,9.30
2014,09,12,05,41,9.30
2014,09,12,05,42,9.30
2014,09,12,05,43,9.30
2014,09,12,05,44,9.30
2014,09,12,05,45,9.30
2014,09,12,05,46,9.30
2014,09,12,05,47,9.30
2014,09,12,05,48,9.40
2014,09,12,05,49,9.40
2014,09,12,05,50,9.40
2014,09,12,05,51,9.40
2014,09,12,05,52,9.50
2014,09,12,05,53,9.50
2014,09,12,05,54,9.60
2014,09,12,05,55,9.60
2014,09,12,05,56,9.50
2014,09,12,05,57,9.50
2014,09,12,05,58,9.50
2014,09,12,05,59,9.40
2014,09,12,06,00,9.40
2014,09,12,06,01,9.40
2014,09,12,06,02,9.30
2014,09,12,06,03,9.30
2014,09,12,06,04,9.20
2014,09,12,06,05,9.20
2014,09,12,06,06,9.20
2014,09,12,06,07,9.20
2014,09,12,06,08,9.10
2014,09,12,06,09,9.10
2014,09,12,06,10,9.10
2014,09,12,06,11,9.10
2014,09,12,06,12,9.10
2014,09,12,06,13,9.10
2014,09,12,06,14,9.10
2014,09,12,06,15,9.10
2014,09,12,06,16,9.10
2014,09,12,06,17,9.10
2014,09,12,06,18,9.10
2014,09,12,06,19,9.20
2014,09,12,06,20,9.30
2014,09,12,06,21,9.40
2014,09,12,06,22,9.60
2014,09,12,06,23,9.80
2014,09,12,06,24,10.10
2014,09,12,06,25,10.30
2014,09,12,06,26,10.40
2014,09,12,06,27,10.60
2014,09,12,06,28,10.80
2014,09,12,06,29,11.00
2014,09,12,06,30,11.20
2014,09,12,06,31,11.30
2014,09,12,06,32,11.50
2014,09,12,06,33,11.60
2014,09,12,06,34,11.70
2014,09,12,06,35,11.90
2014,09,12,06,36,12.00
2014,09,12,06,37,12.10
2014,09,12,06,38,12.20
2014,09,12,06,39,12.30
2014,09,12,06,40,12.40
2014,09,12,06,41,12.50
2014,09,12,06,42,12.60
2014,09,12,06,43,12.60
2014,09,12,06,44,12.60
2014,09,12,06,45,12.70
2014,09,12,06,46,12.70
2014,09,12,06,47,12.70
2014,09,12,06,48,12.70
2014,09,12,06,49,12.70
2014,09,12,06,50,12.70
2014,09,12,06,51,12.70
2014,09,12,06,52,12.70
2014,09,12,06,53,12.60
2014,09,12,06,54,12.60
2014,09,12,06,55,12.60
2014,09,12,06,56,12.60
2014,09,12,06,57,12.60
2014,09,12,06,58,12.60
2014,09,12,06,59,12.60
2014,09,12,07,00,12.60
2014,09,12,07,01,12.70
2014,09,12,07,02,12.70
2014,09,12,07,03,12.70
2014,09,12,07,04,12.70
2014,09,12,07,05,12.80
2014,09,12,07,06,12.80
2014,09,12,07,07,12.80
2014,09,12,07,08,12.90
2014,09,12,07,09,12.90
2014,09,12,07,10,12.90
2014,09,12,07,11,12.90
2014,09,12,07,12,13.00
2014,09,12,07,13,13.00
2014,09,12,07,14,13.00
2014,09,12,07,15,13.00
2014,09,12,07,16,13.00
2014,09,12,07,17,13.00
2014,09,12,07,18,12.90
2014,09,12,07,19,12.90
2014,09,12,07,20,12.90
2014,09,12,07,21,12.90
2014,09,12,07,22,12.90
2014,09,12,07,23,12.90
2014,09,12,07,24,12.90
2014,09,12,07,25,12.90
2014,09,12,07,26,12.90
2014,09,12,07,27,12.90
2014,09,12,07,28,12.90
2014,09,12,07,29,12.90
2014,09,12,07,30,12.90
2014,09,12,07,31,12.90
2014,09,12,07,32,12.90
2014,09,12,07,33,12.90
2014,09,12,07,34,12.90
2014,09,12,07,35,12.90
2014,09,12,07,36,12.90
2014,09,12,07,37,12.90
2014,09,12,07,38,12.90
2014,09,12,07,39,13.00
2014,09,12,07,40,13.00
2014,09,12,07,41,13.00
2014,09,12,07,42,13.00
2014,09,12,07,43,13.10
2014,09,12,07,44,13.10
2014,09,12,07,45,13.10
2014,09,12,07,46,13.10
2014,09,12,07,47,13.10
2014,09,12,07,48,13.10
2014,09,12,07,49,13.10
2014,09,12,07,50,13.20
2014,09,12,07,51,13.20
2014,09,12,07,52,13.20
2014,09,12,07,53,13.20
2014,09,12,07,54,13.20
2014,09,12,07,55,13.20
2014,09,12,07,56,13.20
2014,09,12,07,57,13.30
2014,09,12,07,58,13.30
2014,09,12,07,59,13.30
2014,09,12,08,00,13.30
2014,09,12,08,01,13.40
2014,09,12,08,02,13.40
2014,09,12,08,03,13.40
2014,09,12,08,04,13.50
2014,09,12,08,05,13.50
2014,09,12,08,06,13.60
2014,09,12,08,07,13.60
2014,09,12,08,08,13.70
2014,09,12,08,09,13.70
2014,09,12,08,10,13.70
2014,09,12,08,11,13.80
2014,09,12,08,12,13.80
2014,09,12,08,13,13.80
2014,09,12,08,14,13.90
2014,09,12,08,15,13.90
2014,09,12,08,16,13.90
2014,09,12,08,17,14.00
2014,09,12,08,18,14.00
2014,09,12,08,19,14.00
2014,09,12,08,20,14.00
2014,09,12,08,21,14.10
2014,09,12,08,22,14.10
2014,09,12,08,23,14.10
2014,09,12,08,24,14.10
2014,09,12,08,25,14.10
2014,09,12,08,26,14.10
2014,09,12,08,27,14.20
2014,09,12,08,28,14.20
2014,09,12,08,29,14.20
2014,09,12,08,30,14.20
2014,09,12,08,31,14.20
2014,09,12,08,32,14.20
2014,09,12,08,33,14.30
2014,09,12,08,34,14.30
2014,09,12,08,35,14.30
2014,09,12,08,36,14.40
2014,09,12,08,37,14.40
2014,09,12,08,38,14.40
2014,09,12,08,39,14.50
2014,09,12,08,40,14.50
2014,09,12,08,41,14.60
2014,09,12,08,42,14.60
2014,09,12,08,43,14.60
2014,09,12,08,44,14.60
2014,09,12,08,45,14.70
2014,09,12,08,46,14.70
2014,09,12,08,47,14.70
2014,09,12,08,48,14.70
2014,09,12,08,49,14.70
2014,09,12,08,50,14.80
2014,09,12,08,51,14.80
2014,09,12,08,52,14.80
2014,09,12,08,53,14.80
2014,09,12,08,54,14.80
2014,09,12,08,55,14.90
2014,09,12,08,56,14.90
2014,09,12,08,57,14.90
2014,09,12,08,58,14.90
2014,09,12,08,59,14.90
2014,09,12,09,00,15.00
2014,09,12,09,01,15.00
2014,09,12,09,02,15.00
2014,09,12,09,03,15.00
2014,09,12,09,04,15.10
2014,09,12,09,05,15.10
2014,09,12,09,06,15.10
2014,09,12,09,07,15.10
2014,09,12,09,08,15.20
2014,09,12,09,09,15.20
2014,09,12,09,10,15.20
2014,09,12,09,11,15.30
2014,09,12,09,12,15.30
2014,09,12,09,13,15.30
2014,09,12,09,14,15.30
2014,09,12,09,15,15.40
2014,09,12,09,16,15.40
2014,09,12,09,17,15.40
2014,09,12,09,18,15.40
2014,09,12,09,19,15.50
2014,09,12,09,20,15.50
2014,09,12,09,21,15.50
2014,09,12,09,22,15.50
2014,09,12,09,23,15.60
2014,09,12,09,24,15.60
2014,09,12,09,25,15.60
2014,09,12,09,26,15.60
2014,09,12,09,27,15.70
2014,09,12,09,28,15.70
2014,09,12,09,29,15.70
2014,09,12,09,30,15.70
2014,09,12,09,31,15.70
2014,09,12,09,32,15.80
2014,09,12,09,33,15.80
2014,09,12,09,34,15.70
2014,09,12,09,35,15.70
2014,09,12,09,36,15.70
2014,09,12,09,37,15.70
2014,09,12,09,38,15.80
2014,09,12,09,39,15.80
2014,09,12,09,40,15.80
2014,09,12,09,41,15.80
2014,09,12,09,42,15.80
2014,09,12,09,43,15.90
2014,09,12,09,44,15.90
2014,09,12,09,45,15.90
2014,09,12,09,46,16.00
2014,09,12,09,47,16.00
2014,09,12,09,48,16.10
2014,09,12,09,49,16.10
2014,09,12,09,50,16.10
2014,09,12,09,51,16.20
2014,09,12,09,52,16.20
2014,09,12,09,53,16.30
2014,09,12,09,54,16.30
2014,09,12,09,55,16.40
2014,09,12,09,56,16.40
2014,09,12,09,57,16.40
2014,09,12,09,58,16.50
2014,09,12,09,59,16.50
2014,09,12,10,00,16.50
2014,09,12,10,01,16.50
2014,09,12,10,02,16.50
2014,09,12,10,03,16.50
2014,09,12,10,04,16.50
2014,09,12,10,05,16.50
2014,09,12,10,06,16.60
2014,09,12,10,07,16.60
2014,09,12,10,08,16.60
2014,09,12,10,09,16.70
2014,09,12,10,10,16.70
2014,09,12,10,11,16.70
2014,09,12,10,12,16.80
2014,09,12,10,13,16.80
2014,09,12,10,14,16.90
2014,09,12,10,15,16.90
2014,09,12,10,16,17.00
2014,09,12,10,17,17.00
2014,09,12,10,18,17.00
2014,09,12,10,19,17.10
2014,09,12,10,20,17.10
2014,09,12,10,21,17.10
2014,09,12,10,22,17.20
2014,09,12,10,23,17.20
2014,09,12,10,24,17.20
2014,09,12,10,25,17.30
2014,09,12,10,26,17.30
2014,09,12,10,27,17.30
2014,09,12,10,28,17.30
2014,09,12,10,29,17.30
2014,09,12,10,30,17.30
2014,09,12,10,31,17.30
2014,09,12,10,32,17.30
2014,09,12,10,33,17.40
2014,09,12,10,34,17.40
2014,09,12,10,35,17.40
2014,09,12,10,36,17.50
2014,09,12,10,37,17.50
2014,09,12,10,38,17.50
2014,09,12,10,39,17.60
2014,09,12,10,40,17.60
2014,09,12,10,41,17.60
2014,09,12,10,42,17.70
2014,09,12,10,43,17.70
2014,09,12,10,44,17.70
2014,09,12,10,45,17.70
2014,09,12,10,46,17.70
2014,09,12,10,47,17.80
2014,09,12,10,48,17.80
2014,09,12,10,49,17.80
2014,09,12,10,50,17.80
2014,09,12,10,51,17.80
2014,09,12,10,52,17.80
2014,09,12,10,53,17.90
2014,09,12,10,54,17.90
2014,09,12,10,55,18.00
2014,09,12,10,56,18.00
2014,09,12,10,57,18.10
2014,09,12,10,58,18.10
2014,09,12,10,59,18.10
2014,09,12,11,00,18.10
2014,09,12,11,01,18.10
2014,09,12,11,02,18.20
2014,09,12,11,03,18.20
2014,09,12,11,04,18.20
2014,09,12,11,05,18.20
2014,09,12,11,06,18.20
2014,09,12,11,07,18.20
2014,09,12,11,08,18.20
2014,09,12,11,09,18.20
2014,09,12,11,10,18.20
2014,09,12,11,11,18.20
2014,09,12,11,12,18.20
2014,09,12,11,13,18.20
2014,09,12,11,14,18.20
2014,09,12,11,15,18.30
2014,09,12,11,16,18.30
2014,09,12,11,17,18.30
2014,09,12,11,18,18.30
2014,09,12,11,19,18.40
2014,09,12,11,20,18.40
2014,09,12,11,21,18.40
2014,09,12,11,22,18.40
2014,09,12,11,23,18.40
2014,09,12,11,24,18.50
2014,09,12,11,25,18.50
2014,09,12,11,26,18.60
2014,09,12,11,27,18.60
2014,09,12,11,28,18.60
2014,09,12,11,29,18.70
2014,09,12,11,30,18.70
2014,09,12,11,31,18.70
2014,09,12,11,32,18.80
2014,09,12,11,33,18.80
2014,09,12,11,34,18.80
2014,09,12,11,35,18.80
2014,09,12,11,36,18.80
2014,09,12,11,37,18.80
2014,09,12,11,38,18.80
2014,09,12,11,39,18.80
2014,09,12,11,40,18.80
2014,09,12,11,41,18.80
2014,09,12,11,42,18.80
2014,09,12,11,43,18.90
2014,09,12,11,44,18.90
2014,09,12,11,45,18.90
2014,09,12,11,46,19.00
2014,09,12,11,47,19.00
2014,09,12,11,48,19.10
2014,09,12,11,49,19.10
2014,09,12,11,50,19.20
2014,09,12,11,51,19.20
2014,09,12,11,52,19.20
2014,09,12,11,53,19.20
2014,09,12,11,54,19.20
2014,09,12,11,55,19.20
2014,09,12,11,56,19.20
2014,09,12,11,57,19.30
2014,09,12,11,58,19.30
2014,09,12,11,59,19.30
2014,09,12,12,00,19.30
2014,09,12,12,01,19.30
2014,09,12,12,02,19.30
2014,09,12,12,03,19.30
2014,09,12,12,04,19.30
2014,09,12,12,05,19.30
2014,09,12,12,06,19.30
2014,09,12,12,07,19.40
2014,09,12,12,08,19.50
2014,09,12,12,09,19.50
2014,09,12,12,10,19.60
2014,09,12,12,11,19.60
2014,09,12,12,12,19.70
2014,09,12,12,13,19.70
2014,09,12,12,14,19.70
2014,09,12,12,15,19.80
2014,09,12,12,16,19.80
2014,09,12,12,17,19.80
2014,09,12,12,18,19.80
2014,09,12,12,19,19.90
2014,09,12,12,20,19.90
2014,09,12,12,21,19.90
2014,09,12,12,22,19.90
2014,09,12,12,23,19.90
2014,09,12,12,24,19.90
2014,09,12,12,25,20.00
2014,09,12,12,26,20.10
2014,09,12,12,27,20.10
2014,09,12,12,28,20.20
2014,09,12,12,29,20.20
2014,09,12,12,30,20.20
2014,09,12,12,31,20.30
2014,09,12,12,32,20.30
2014,09,12,12,33,20.30
2014,09,12,12,34,20.30
2014,09,12,12,35,20.30
2014,09,12,12,36,20.30
2014,09,12,12,37,20.30
2014,09,12,12,38,20.40
2014,09,12,12,39,20.40
2014,09,12,12,40,20.40
2014,09,12,12,41,20.40
2014,09,12,12,42,20.50
2014,09,12,12,43,20.50
2014,09,12,12,44,20.50
2014,09,12,12,45,20.50
2014,09,12,12,46,20.50
2014,09,12,12,47,20.60
2014,09,12,12,48,20.60
2014,09,12,12,49,20.60
2014,09,12,12,50,20.70
2014,09,12,12,51,20.70
2014,09,12,12,52,20.70
2014,09,12,12,53,20.80
2014,09,12,12,54,20.80
2014,09,12,12,55,20.80
2014,09,12,12,56,20.80
2014,09,12,12,57,20.90
2014,09,12,12,58,20.90
2014,09,12,12,59,20.90
2014,09,12,13,00,21.00
2014,09,12,13,01,21.00
2014,09,12,13,02,21.10
2014,09,12,13,03,21.10
2014,09,12,13,04,21.10
2014,09,12,13,05,21.10
2014,09,12,13,06,21.00
2014,09,12,13,07,21.00
2014,09,12,13,08,21.00
2014,09,12,13,09,21.00
2014,09,12,13,10,20.90
2014,09,12,13,11,20.90
2014,09,12,13,12,20.90
2014,09,12,13,13,20.90
2014,09,12,13,14,20.90
2014,09,12,13,15,21.00
2014,09,12,13,16,21.00
2014,09,12,13,17,21.00
2014,09,12,13,18,21.00
2014,09,12,13,19,21.10
2014,09,12,13,20,21.10
2014,09,12,13,21,21.10
2014,09,12,13,22,21.10
2014,09,12,13,23,21.20
2014,09,12,13,24,21.20
2014,09,12,13,25,21.30
2014,09,12,13,26,21.30
2014,09,12,13,27,21.40
2014,09,12,13,28,21.50
2014,09,12,13,29,21.50
2014,09,12,13,30,21.60
2014,09,12,13,31,21.60
2014,09,12,13,32,21.70
2014,09,12,13,33,21.70
2014,09,12,13,34,21.60
2014,09,12,13,35,21.60
2014,09,12,13,36,21.60
2014,09,12,13,37,21.70
2014,09,12,13,38,21.70
2014,09,12,13,39,21.70
2014,09,12,13,40,21.80
2014,09,12,13,41,21.80
2014,09,12,13,42,21.80
2014,09,12,13,43,21.80
2014,09,12,13,44,21.80
2014,09,12,13,45,21.80
2014,09,12,13,46,21.80
2014,09,12,13,47,21.80
2014,09,12,13,48,21.70
2014,09,12,13,49,21.70
2014,09,12,13,50,21.60
2014,09,12,13,51,21.60
2014,09,12,13,52,21.60
2014,09,12,13,53,21.60
2014,09,12,13,54,21.60
2014,09,12,13,55,21.60
2014,09,12,13,56,21.70
2014,09,12,13,57,21.70
2014,09,12,13,58,21.70
2014,09,12,13,59,21.70
2014,09,12,14,00,21.70
2014,09,12,14,01,21.80
2014,09,12,14,02,21.80
2014,09,12,14,03,21.90
2014,09,12,14,04,21.90
2014,09,12,14,05,22.00
2014,09,12,14,06,22.00
2014,09,12,14,07,22.10
2014,09,12,14,08,22.10
2014,09,12,14,09,22.10
2014,09,12,14,10,22.20
2014,09,12,14,11,22.20
2014,09,12,14,12,22.20
2014,09,12,14,13,22.30
2014,09,12,14,14,22.30
2014,09,12,14,15,22.30
2014,09,12,14,16,22.40
2014,09,12,14,17,22.40
2014,09,12,14,18,22.40
2014,09,12,14,19,22.40
2014,09,12,14,20,22.40
2014,09,12,14,21,22.40
2014,09,12,14,22,22.30
2014,09,12,14,23,22.30
2014,09,12,14,24,22.30
2014,09,12,14,25,22.30
2014,09,12,14,26,22.30
2014,09,12,14,27,22.20
2014,09,12,14,28,22.20
2014,09,12,14,29,22.20
2014,09,12,14,30,22.20
2014,09,12,14,31,22.20
2014,09,12,14,32,22.20
2014,09,12,14,33,22.20
2014,09,12,14,34,22.20
2014,09,12,14,35,22.20
2014,09,12,14,36,22.20
2014,09,12,14,37,22.30
2014,09,12,14,38,22.30
2014,09,12,14,39,22.30
2014,09,12,14,40,22.30
2014,09,12,14,41,22.30
2014,09,12,14,42,22.30
2014,09,12,14,43,22.30
2014,09,12,14,44,22.30
2014,09,12,14,45,22.30
2014,09,12,14,46,22.30
2014,09,12,14,47,22.30
2014,09,12,14,48,22.20
2014,09,12,14,49,22.20
2014,09,12,14,50,22.20
2014,09,12,14,51,22.20
2014,09,12,14,52,22.20
2014,09,12,14,53,22.30
2014,09,12,14,54,22.30
2014,09,12,14,55,22.30
2014,09,12,14,56,22.30
2014,09,12,14,57,22.30
2014,09,12,14,58,22.30
2014,09,12,14,59,22.30
2014,09,12,15,00,22.30
2014,09,12,15,01,22.30
2014,09,12,15,02,22.30
2014,09,12,15,03,22.40
2014,09,12,15,04,22.40
2014,09,12,15,05,22.40
2014,09,12,15,06,22.40
2014,09,12,15,07,22.40
2014,09,12,15,08,22.50
2014,09,12,15,09,22.40
2014,09,12,15,10,22.40
2014,09,12,15,11,22.30
2014,09,12,15,12,22.30
2014,09,12,15,13,22.30
2014,09,12,15,14,22.40
2014,09,12,15,15,22.40
2014,09,12,15,16,22.40
2014,09,12,15,17,22.40
2014,09,12,15,18,22.50
2014,09,12,15,19,22.50
2014,09,12,15,20,22.50
2014,09,12,15,21,22.50
2014,09,12,15,22,22.40
2014,09,12,15,23,22.40
2014,09,12,15,24,22.40
2014,09,12,15,25,22.40
2014,09,12,15,26,22.40
2014,09,12,15,27,22.40
2014,09,12,15,28,22.40
2014,09,12,15,29,22.40
2014,09,12,15,30,22.40
2014,09,12,15,31,22.40
2014,09,12,15,32,22.40
2014,09,12,15,33,22.30
2014,09,12,15,34,22.30
2014,09,12,15,35,22.30
2014,09,12,15,36,22.30
2014,09,12,15,37,22.30
2014,09,12,15,38,22.30
2014,09,12,15,39,22.30
2014,09,12,15,40,22.40
2014,09,12,15,41,22.40
2014,09,12,15,42,22.50
2014,09,12,15,43,22.50
2014,09,12,15,44,22.60
2014,09,12,15,45,22.60
2014,09,12,15,46,22.60
2014,09,12,15,47,22.60
2014,09,12,15,48,22.60
2014,09,12,15,49,22.60
2014,09,12,15,50,22.60
2014,09,12,15,51,22.60
2014,09,12,15,52,22.50
2014,09,12,15,53,22.50
2014,09,12,15,54,22.40
2014,09,12,15,55,22.30
2014,09,12,15,56,22.30
2014,09,12,15,57,22.30
2014,09,12,15,58,22.40
2014,09,12,15,59,22.40
2014,09,12,16,00,22.50
2014,09,12,16,01,22.50
2014,09,12,16,02,22.60
2014,09,12,16,03,22.70
2014,09,12,16,04,22.70
2014,09,12,16,05,22.70
2014,09,12,16,06,22.80
2014,09,12,16,07,22.80
2014,09,12,16,08,22.80
2014,09,12,16,09,22.80
2014,09,12,16,10,22.80
2014,09,12,16,11,22.80
2014,09,12,16,12,22.70
2014,09,12,16,13,22.70
2014,09,12,16,14,22.70
2014,09,12,16,15,22.70
2014,09,12,16,16,22.70
2014,09,12,16,17,22.70
2014,09,12,16,18,22.70
2014,09,12,16,19,22.70
2014,09,12,16,20,22.70
2014,09,12,16,21,22.70
2014,09,12,16,22,22.70
2014,09,12,16,23,22.70
2014,09,12,16,24,22.70
2014,09,12,16,25,22.70
2014,09,12,16,26,22.70
2014,09,12,16,27,22.70
2014,09,12,16,28,22.70
2014,09,12,16,29,22.70
2014,09,12,16,30,22.80
2014,09,12,16,31,22.80
2014,09,12,16,32,22.80
2014,09,12,16,33,22.80
2014,09,12,16,34,22.80
2014,09,12,16,35,22.80
2014,09,12,16,36,22.80
2014,09,12,16,37,22.80
2014,09,12,16,38,22.80
2014,09,12,16,39,22.80
2014,09,12,16,40,22.80
2014,09,12,16,41,22.80
2014,09,12,16,42,22.80
2014,09,12,16,43,22.90
2014,09,12,16,44,22.80
2014,09,12,16,45,22.90
2014,09,12,16,46,22.90
2014,09,12,16,47,22.90
2014,09,12,16,48,22.90
2014,09,12,16,49,22.90
2014,09,12,16,50,23.00
2014,09,12,16,51,23.00
2014,09,12,16,52,23.00
2014,09,12,16,53,23.00
2014,09,12,16,54,23.00
2014,09,12,16,55,23.00
2014,09,12,16,56,23.10
2014,09,12,16,57,23.10
2014,09,12,16,58,23.10
2014,09,12,16,59,23.10
2014,09,12,17,00,23.10
2014,09,12,17,01,23.10
2014,09,12,17,02,23.10
2014,09,12,17,03,23.20
2014,09,12,17,04,23.20
2014,09,12,17,05,23.20
2014,09,12,17,06,23.20
2014,09,12,17,07,23.30
2014,09,12,17,08,23.30
2014,09,12,17,09,23.30
2014,09,12,17,10,23.30
2014,09,12,17,11,23.30
2014,09,12,17,12,23.40
2014,09,12,17,13,23.40
2014,09,12,17,14,23.40
2014,09,12,17,15,23.40
2014,09,12,17,16,23.50
2014,09,12,17,17,23.50
2014,09,12,17,18,23.50
2014,09,12,17,19,23.50
2014,09,12,17,20,23.60
2014,09,12,17,21,23.60
2014,09,12,17,22,23.60
2014,09,12,17,23,23.60
2014,09,12,17,24,23.70